User: anonymous   Login
Location: Unspecified
(0.0000°N, 0.0000°E)
Time: 23:59:20
(UTC+02:00)
Language:

Cosmos 1943 Rocket - Orbit

View from above orbital plane
View from above orbital plane
View from above satellite
View from above satellite

Ground track
Ground track

The orbit data is extracted from the following two-line orbital elements,

1 19120U 88039B   15216.50584590 -.00000008  00000-0  19266-4 0  9999
2 19120 071.0167 327.3321 0021007 160.4800 199.7134 14.19113696409533
Epoch (UTC): 04 August 2015 12:08:25
Eccentricity: 0.0021007
inclination: 71.0167°
perigee height: 813 km
apogee height: 843 km
right ascension of ascending node: 327.3321°
argument of perigee: 160.4800°
revolutions per day: 14.19113696
mean anomaly at epoch: 199.7134°
orbit number at epoch: 40953

The dashed part of the orbit path shows where the satellite is in the earth's shadow,  

DLR